Presure
173 127 145 143 160 145 134 129 130 147 180 169 155 114 118 121 132 156 129 163 120 123 178 193 113 159 134 184 148 180 148 169 132 157 182 167 175 198 119 192 192 190 195 135 203
135 146 160 180 153 166 148 163 168 135 136 131 148 135 131 143 173 121 135 108 132 160 124 141 177 131 119 123 144 119 153 136 117 149 179 180 184 193 133 172 183 164 157 159 135
131 151 144 172 134 126 132 176 140 170 160 186 131 144 169 133 107 175 123 138 111 123 108 194 114 123 169 181 131 159 169 164 185 171 172 195 180 184 135 192 191 198 193 196 157
126 166 125 132 169 167 138 124 115 132 141 147 149 133 144 187 165 136 177 120 136 119 104 124 136 127 166 180 112 176 162 168 182 180 132 196 221 219 206 223 181 239 197 216 186
135 166 164 158 147 132 151 175 183 150 141 154 143 168 173 148 147 158 165 177 126 143 160 136 176 155 135 161 172 186 169 205 202 201 179 160 217 134 194 191 203 224 212 168 204
183 162 151 132 172 129 144 141 124 153 142 134 171 161 163 180 143 123 152 167 142 159 146 159 165 177 160 165 174 168 169 167 192 198 213 161 208 206 189 183 211 211 207 226 236
154 190 184 140 147 183 185 178 186 154 156 153 131 167 172 157 189 177 142 145 179 127 170 170 173 171 187 198 203 188 156 177 167 206 202 206 148 197 222 198 202 225 214 214 236
206 202 172 189 193 182 134 170 167 151 180 180 171 182 184 167 175 173 104 124 156 181 186 193 160 188 172 184 197 180 194 184 195 213 199 213 183 216 243 230 219 212 240 249 300
212 224 207 209 126 172 182 184 186 185 192 179 175 177 174 177 174 157 131 158 158 147 168 172 185 183 182 209 170 209 208 209 198 197 225 216 218 228 262 214 290 331 365 329 291
206 202 192 216 222 178 211 186 202 159 181 174 183 196 201 137 198 180 182 187 160 196 202 194 180 217 213 222 196 208 203 200 225 207 202 249 250 315 316 314 363 348 338 319 309
218 163 223 232 208 225 225 202 143 206 191 208 189 171 177 175 181 190 143 110 173 200 207 209 215 220 215 204 196 215 188 204 142 243 233 319 324 351 353 350 331 326 309 298 293
239 243 212 217 222 225 225 223 172 218 194 182 207 192 203 122 133 178 135 207 213 207 195 210 212 206 206 190 197 206 198 215 232 263 289 351 351 344 338 329 316 301 296 280 279
280 256 206 195 192 170 209 170 222 191 187 234 206 162 211 213 157 212 176 171 210 214 138 218 207 169 222 208 202 211 229 232 315 343 325 301 344 337 315 264 287 282 282 270 265
231 253 240 271 288 235 234 236 201 219 182 211 149 171 230 178 222 215 139 159 214 158 225 190 218 222 219 224 227 213 235 350 284 334 333 349 322 316 252 283 284 271 264 259 258
293 254 292 242 261 313 275 125 246 261 240 230 134 191 221 222 233 189 217 209 218 217 154 226 228 224 232 225 226 316 339 320 331 329 331 337 313 291 277 268 261 262 264 261 251
287 289 283 295 310 286 254 266 299 280 261 259 273 262 227 141 233 198 232 226 216 272 260 268 261 235 284 228 281 338 330 326 321 279 335 318 298 279 269 260 257 266 257 253 247
242 289 252 301 312 305 307 268 267 260 315 309 284 273 277 265 277 284 279 278 266 277 275 294 282 302 310 294 333 329 292 299 308 332 316 302 284 264 260 271 268 254 251 250 246
269 272 279 249 264 296 278 288 306 297 314 249 250 313 258 304 270 267 276 244 215 270 301 309 386 260 298 322 284 278 318 300 339 315 308 290 270 262 263 267 250 248 246 245 249
268 265 275 294 240 258 277 301 305 280 283 288 323 312 312 259 314 287 276 282 243 249 253 322 301 290 275 319 322 319 318 330 315 301 299 280 267 261 266 255 248 243 248 245 244
291 259 273 248 270 256 274 286 309 283 302 289 298 296 339 333 313 305 356 358 356 355 317 365 337 286 306 331 319 308 315 313 299 295 285 273 263 263 256 252 254 250 243 251 267
344 323 271 273 271 290 309 288 295 289 287 302 290 287 298 308 339 347 350 349 344 347 316 364 376 239 330 324 318 317 321 301 287 295 276 268 259 261 255 246 247 243 256 268 304
400 418 399 370 314 297 279 289 280 303 296 302 277 284 304 307 338 337 337 339 338 346 355 357 312 349 332 322 305 243 305 293 285 281 274 264 261 259 244 247 243 252 252 300 262
392 400 388 364 308 284 303 290 303 293 281 289 286 281 337 330 334 331 328 340 351 346 354 348 313 275 333 318 305 311 293 282 279 276 267 266 262 258 243 243 249 257 290 274 245
348 375 382 356 346 308 304 297 281 287 294 285 283 305 331 323 326 321 325 348 341 337 341 307 272 259 351 316 312 296 284 284 277 271 268 261 260 242 244 248 255 286 259 252 227
341 375 366 350 332 316 306 298 285 263 285 291 286 244 282 321 321 325 338 334 336 330 333 328 257 343 308 315 300 287 276 271 276 265 262 255 245 247 251 254 254 308 252 234 240
320 360 357 337 326 312 300 297 286 284 271 265 270 307 308 324 323 323 335 326 326 320 316 333 327 247 312 299 288 278 275 272 273 263 261 256 253 251 255 256 280 260 242 240 223
333 356 334 330 316 300 298 285 278 277 278 287 288 269 328 323 328 339 324 321 315 308 310 316 298 294 294 289 279 275 272 267 266 260 256 253 252 253 259 251 284 242 247 245 222
Wind_Speed
54 40 44 58 55 58 52 51 48 52 53 54 50 27 37 34 43 41 39 47 29 31 54 56 33 48 36 58 49 55 52 57 46 56 66 61 62 71 46 74 74 76 75 53 74
60 59 56 59 59 53 59 57 57 59 49 46 53 46 53 44 53 37 46 24 43 49 43 40 59 44 46 39 47 46 55 47 40 59 66 67 67 73 57 67 72 65 61 63 54
59 63 63 64 63 57 62 61 57 57 58 60 57 60 54 58 25 57 51 52 37 42 29 67 43 42 58 64 46 58 63 61 69 64 61 73 69 72 55 79 79 82 74 71 67
62 68 58 62 68 69 65 48 41 65 65 58 63 64 62 67 58 60 63 50 54 53 30 55 47 55 60 66 41 66 59 60 72 70 48 74 75 75 81 86 61 79 69 88 65
66 76 72 72 70 63 67 71 74 57 64 63 63 66 64 66 60 60 67 66 59 63 60 45 64 56 49 58 64 74 65 77 74 79 62 49 78 58 77 68 75 85 78 75 80
84 77 74 57 79 56 70 67 58 69 68 62 73 67 69 74 64 57 59 65 55 62 54 63 66 71 61 61 66 63 64 63 69 67 77 51 82 83 71 67 82 81 82 86 91
82 87 86 71 75 86 86 84 84 72 73 71 58 71 74 66 82 76 57 56 76 53 70 69 72 71 79 81 80 78 56 77 59 83 85 84 69 79 90 72 74 92 82 76 89
96 93 80 89 90 89 64 83 82 72 85 85 80 84 85 75 79 78 40 54 70 81 82 84 60 82 67 77 82 82 83 77 88 88 84 89 81 91 91 92 88 81 81 87 70
97 105 92 97 63 89 88 90 90 90 92 88 84 85 81 84 83 66 52 64 59 44 64 66 75 78 73 86 69 81 83 84 88 84 97 88 88 92 88 87 77 66 50 51 59
99 96 87 101 106 94 99 93 95 77 90 88 89 91 95 58 93 83 87 90 62 91 91 86 85 90 84 85 81 81 86 92 92 94 79 96 92 79 70 64 47 43 36 42 41
103 92 104 110 92 106 106 94 70 98 93 97 91 80 90 87 87 91 56 43 70 89 90 91 91 88 85 82 86 85 85 92 65 94 93 77 66 57 48 40 39 33 34 33 37
105 114 100 96 105 106 106 106 94 101 94 86 95 90 94 54 60 83 63 92 92 89 88 89 89 84 84 87 86 86 88 89 93 86 58 56 47 41 36 30 31 32 30 34 33
99 89 90 94 97 89 102 94 105 87 89 108 94 70 95 95 69 93 75 75 90 88 62 92 86 69 84 86 91 91 89 93 59 50 47 45 34 31 28 34 32 31 29 33 34
95 104 104 107 101 109 108 108 96 103 95 99 68 74 110 89 94 92 61 72 88 58 91 89 85 85 88 88 89 87 82 43 64 43 44 36 25 24 35 29 26 31 33 33 33
90 100 97 97 105 86 102 64 112 104 108 100 69 95 103 99 101 83 90 84 85 87 59 87 89 85 91 88 85 56 41 45 39 41 35 25 22 26 29 30 30 32 32 30 34
92 93 97 95 83 93 93 88 82 83 95 91 96 93 99 66 99 88 100 90 84 98 94 88 86 84 81 80 59 35 36 38 40 42 24 21 22 26 28 28 31 30 30 30 33
78 93 82 84 77 84 84 84 80 77 73 73 86 94 95 102 96 91 92 92 90 90 86 81 80 66 55 51 32 30 44 41 33 22 20 21 23 27 27 29 26 27 27 28 31
91 82 91 69 79 79 79 79 72 71 68 90 85 70 87 77 84 86 85 76 69 75 67 61 34 56 45 34 43 45 33 34 20 20 19 22 24 25 28 24 24 24 26 28 32
90 84 88 77 68 74 80 80 76 63 61 60 65 63 65 83 71 76 76 72 63 55 49 42 48 44 45 33 29 27 27 19 19 20 19 21 23 25 24 21 20 26 27 30 33
99 73 86 70 90 85 84 76 71 61 66 55 54 53 54 57 61 57 47 42 39 39 46 32 33 40 33 26 25 31 23 20 20 20 19 20 24 24 21 17 18 22 27 29 31
88 84 92 90 84 77 63 69 69 69 62 62 52 49 53 53 44 42 37 35 34 33 39 29 26 43 26 23 25 21 20 21 21 20 21 21 22 21 16 14 18 23 23 26 10
41 52 51 59 70 68 70 72 64 64 62 57 42 46 50 46 37 35 33 31 32 30 28 27 29 31 27 23 28 29 22 21 20 19 21 22 22 17 11 13 18 19 20 16 17
39 47 48 51 64 64 63 65 60 63 51 53 48 42 35 36 33 29 28 28 26 26 24 23 24 27 24 26 25 23 23 20 20 20 20 22 18 13 10 13 15 14 10 33 9
34 37 48 49 51 58 58 58 58 55 53 47 43 44 33 32 28 25 26 25 22 23 21 21 26 24 22 26 25 25 22 20 22 20 19 16 13 9 9 11 12 10 21 20 7
35 32 39 46 48 52 54 53 54 33 45 45 42 38 29 31 26 25 24 20 18 18 15 14 24 17 28 27 27 25 21 18 20 17 17 14 12 8 9 9 7 3 30 10 13
29 30 36 44 46 51 51 51 49 47 33 24 26 33 30 30 24 22 18 18 16 15 16 20 22 23 28 27 25 22 20 19 19 17 16 14 10 9 10 9 7 40 19 20 4
35 32 42 45 48 50 48 51 44 42 36 36 32 24 32 24 22 18 17 18 17 20 23 26 27 27 28 27 23 23 21 20 20 18 15 13 10 11 12 11 13 28 28 23 2
Wind_Direction
261 258 269 272 266 271 273 278 276 272 265 265 267 261 263 289 279 279 279 280 276 274 280 275 292 281 281 286 283 285 277 289 282 286 286 280 279 275 268 276 275 276 275 263 273
273 271 263 268 266 270 272 265 265 276 273 268 272 276 277 265 274 277 272 266 266 275 280 271 282 280 278 281 288 282 280 285 275 279 281 285 282 277 271 277 277 274 272 267 264
273 263 264 267 270 280 275 267 278 264 266 267 274 270 270 274 260 277 283 274 281 268 283 278 285 284 284 281 271 288 287 287 284 286 284 281 280 281 275 280 279 277 278 278 265
274 274 275 273 275 268 268 278 280 273 265 263 268 274 268 273 277 267 278 280 271 276 279 267 268 271 287 283 281 283 287 288 285 284 278 282 284 282 278 278 277 278 274 274 274
268 273 271 270 273 271 271 274 272 273 264 267 270 277 276 274 271 277 274 279 268 274 277 263 282 284 282 288 286 282 289 288 285 283 282 269 281 272 279 276 276 277 279 271 270
268 268 272 271 273 273 270 268 270 267 265 269 270 277 274 279 267 271 274 277 274 273 280 284 285 285 288 290 287 283 285 289 283 283 283 268 280 278 285 287 283 283 278 279 275
273 267 265 269 271 267 266 271 268 270 270 270 272 278 276 272 274 280 267 268 281 268 283 284 285 287 282 283 284 282 280 287 287 282 282 280 274 289 279 292 292 280 286 284 280
265 268 267 265 262 265 270 269 271 270 273 274 275 273 272 276 275 279 259 265 276 281 280 280 288 282 288 284 285 284 281 280 284 280 281 283 281 284 282 283 286 288 285 281 273
267 262 265 262 264 267 264 264 266 266 267 270 273 272 273 274 275 277 270 282 284 270 279 279 280 285 281 283 277 281 280 279 282 286 280 287 289 288 287 288 283 280 275 273 273
267 265 269 265 262 268 264 263 262 261 264 269 268 269 269 263 271 269 274 274 276 277 279 279 281 286 285 286 281 280 280 281 283 284 293 290 287 288 288 284 276 274 267 268 273
268 269 263 261 263 263 263 262 261 262 263 265 264 262 269 272 270 271 256 264 273 276 281 282 284 286 284 277 277 280 285 280 278 287 285 286 288 282 280 276 273 265 266 266 267
264 261 261 264 263 263 263 265 267 263 262 262 266 264 266 261 258 273 259 273 276 277 277 282 284 280 279 281 283 282 282 287 285 286 282 282 283 280 278 270 264 265 261 267 267
266 272 266 264 263 267 263 262 263 263 267 266 265 266 266 267 267 270 270 277 275 277 261 281 279 274 285 280 278 283 286 288 284 279 278 282 283 273 268 271 264 264 261 271 267
272 264 268 264 263 265 266 265 264 265 264 268 253 270 272 269 270 268 273 270 276 270 279 274 280 283 280 283 284 283 283 276 283 277 280 282 260 264 270 264 259 270 270 270 270
272 269 272 270 268 273 263 259 268 270 266 265 248 262 269 269 273 269 271 272 274 273 264 279 280 279 282 278 280 287 277 281 270 277 279 267 249 254 258 266 273 269 266 263 265
271 272 273 275 274 272 267 267 267 268 268 264 267 266 266 254 269 268 273 274 273 280 280 282 283 280 287 278 285 271 269 266 272 281 262 254 244 249 256 267 267 255 257 263 268
276 270 271 271 270 274 274 268 268 265 271 271 269 268 270 272 273 274 274 277 278 278 284 283 285 282 277 270 266 262 271 271 272 258 250 244 241 255 261 253 249 258 267 274 279
279 271 271 273 280 276 281 280 277 277 274 266 267 270 272 268 271 273 275 273 276 280 278 278 264 270 277 267 275 276 255 271 256 246 237 235 247 252 254 251 259 270 274 279 279
276 275 277 268 265 278 278 274 276 274 276 277 270 275 272 270 269 271 274 274 272 276 281 267 272 272 271 258 247 248 254 252 238 239 229 234 243 250 250 256 269 273 281 282 288
268 264 269 269 275 271 277 274 270 278 277 279 281 278 269 269 271 270 282 280 274 268 262 260 258 266 258 234 235 247 245 225 231 226 225 232 240 249 256 272 281 279 281 294 300
266 266 268 269 271 268 262 266 272 277 279 275 282 278 278 273 277 279 281 276 269 263 260 256 246 255 234 226 225 233 219 218 231 218 226 232 244 250 266 273 274 278 301 307 121
254 233 234 247 255 261 266 266 270 267 273 273 279 281 277 274 274 278 278 272 264 259 257 253 251 228 227 214 233 256 212 216 223 224 225 235 244 257 260 270 276 302 308 143 160
244 240 223 231 250 258 253 261 258 266 272 275 279 282 270 273 276 278 274 272 262 255 252 247 243 245 217 202 224 202 211 217 220 222 229 234 246 252 264 275 292 304 195 135 266
263 237 225 220 228 242 246 251 262 266 266 274 278 272 269 275 276 276 272 270 251 245 242 233 235 238 210 199 191 197 212 207 215 226 231 240 244 240 260 273 281 286 168 183 313
265 243 228 217 220 227 235 242 254 255 267 267 273 265 269 275 280 274 271 251 237 232 222 201 225 175 202 190 192 199 212 216 213 226 233 231 230 238 247 257 261 213 181 244 244
264 248 224 216 214 220 229 234 249 256 256 264 269 267 275 273 277 262 249 226 219 204 185 173 163 223 185 192 194 199 205 211 212 212 221 228 225 229 231 216 209 170 195 226 354
253 237 216 210 210 219 222 236 244 253 262 263 266 255 269 269 262 250 217 205 187 178 174 160 176 183 186 189 193 194 197 205 206 212 208 215 212 220 218 204 188 194 202 195 268